Edinburg, TX

11:00 PM CDT on April 23, 2017 (GMT -0500)
Edinburg

Weather History for KEBG - February, 2013

Change the Weather History Date:

Saturday, February 16, 2013

  Actual Average (KMFE) Record (KMFE)
Temperature  
Mean Temperature 58 °F -  
Max Temperature 69 °F 75 °F 92 °F (1982)
Min Temperature 47 °F 54 °F 36 °F (2007)
Degree Days  
Heating Degree Days 7    
Growing Degree Days 8 (Base 50)    
Moisture  
Dew Point 31 °F    
Average Humidity 39    
Maximum Humidity 100    
Minimum Humidity 13    
Precipitation  
Precipitation 0.00 in - - ()
Sea Level Pressure  
Sea Level Pressure 30.36 in    
Wind  
Wind Speed 10 mph (NE)    
Max Wind Speed 20 mph    
Max Gust Speed 28 mph    
Visibility 7 miles    
Events Rain    
Averages and records for this station are not official NWS values.
T = Trace of Precipitation, MM = Missing Value Source: NWS Daily Summary

Daily Weather History Graph

Daily Weather History Graph

Search for Another Location

Airport or City:

Trip Planner

Search our weather history database for the weather conditions in past years. The results will help you decide how hot, cold, wet, or windy it might be!

Date:

Astronomy

Feb. 16, 2013 Rise Set
Actual Time 7:07 AM CST 6:26 PM CST
Civil Twilight 6:43 AM CST 6:49 PM CST
Nautical Twilight 6:16 AM CST 7:16 PM CST
Astronomical Twilight 5:49 AM CST 7:43 PM CST
Moon 11:02 AM CST (2/16) No Moon Set
Length of Visible Light 12h 05m
Length of Day
11h 18m
Waxing Crescent, 39% of the Moon is Illuminated
Feb 16
Waxing Crescent
Feb 17
First Quarter
Feb 25
Full
Mar 4
Last Quarter
Mar 11
New

Hourly Weather History & Observations

Time (CST) Temp. Dew Point Humidity Pressure Visibility Wind Dir Wind Speed Gust Speed Precip Events Conditions
12:15 AM 62.8 °F 45.7 °F 54% 30.28 in 7.0 mi NNE 5.8 mph - N/A   Overcast
12:35 AM 62.8 °F 45.9 °F 54% 30.28 in 10.0 mi NNE 6.9 mph - N/A   Overcast
12:55 AM 61.7 °F 47.8 °F 60% 30.29 in 10.0 mi NNE 6.9 mph - N/A   Overcast
1:15 AM 61.5 °F 45.9 °F 56% 30.30 in 7.0 mi North 18.4 mph 23.0 mph N/A   Overcast
1:35 AM 60.4 °F 42.4 °F 51% 30.32 in 7.0 mi North 17.3 mph 26.5 mph N/A   Overcast
1:55 AM 60.1 °F 41.0 °F 49% 30.32 in 7.0 mi North 15.0 mph - N/A   Overcast
2:15 AM 59.4 °F 40.5 °F 50% 30.34 in 7.0 mi NNE 19.6 mph 27.6 mph N/A   Overcast
2:35 AM 57.7 °F 57.7 °F 100% 30.35 in 7.0 mi North 17.3 mph 20.7 mph N/A Rain Light Rain
2:55 AM 57.7 °F 40.5 °F 53% 30.36 in 10.0 mi North 13.8 mph 20.7 mph N/A   Mostly Cloudy
3:15 AM 57.7 °F 40.1 °F 52% 30.36 in 10.0 mi North 16.1 mph 21.9 mph N/A   Overcast
3:35 AM 57.6 °F 39.7 °F 51% 30.37 in 7.0 mi North 17.3 mph 24.2 mph N/A   Overcast
3:55 AM 57.4 °F 39.6 °F 51% 30.37 in 7.0 mi North 16.1 mph 21.9 mph N/A   Overcast
4:15 AM 57.2 °F 38.8 °F 50% 30.38 in 10.0 mi North 15.0 mph 24.2 mph N/A   Overcast
4:55 AM 56.3 °F 38.7 °F 52% 30.39 in 7.0 mi North 12.7 mph - N/A   Overcast
5:15 AM 55.9 °F 38.7 °F 52% 30.39 in 7.0 mi North 12.7 mph - N/A   Overcast
5:35 AM 55.8 °F 38.3 °F 52% 30.40 in 7.0 mi North 10.4 mph - N/A   Overcast
5:55 AM 55.6 °F 38.3 °F 52% 30.41 in 7.0 mi North 8.1 mph 16.1 mph N/A   Overcast
6:15 AM 55.4 °F 37.6 °F 51% 30.41 in 7.0 mi North 8.1 mph - N/A   Overcast
6:35 AM 54.9 °F 37.4 °F 52% 30.42 in 7.0 mi North 6.9 mph - N/A   Overcast
6:55 AM 54.3 °F 36.3 °F 51% 30.43 in 7.0 mi North 13.8 mph 17.3 mph N/A   Mostly Cloudy
7:15 AM 53.1 °F 35.6 °F 52% 30.44 in 7.0 mi North 11.5 mph - N/A   Scattered Clouds
7:35 AM 52.3 °F 34.9 °F 51% 30.45 in 7.0 mi North 8.1 mph - N/A   Clear
7:55 AM 52.7 °F 33.1 °F 47% 30.45 in 7.0 mi North 8.1 mph - N/A   Clear
8:15 AM 53.2 °F 31.8 °F 44% 30.46 in 7.0 mi North 9.2 mph - N/A   Clear
8:35 AM 54.0 °F 29.3 °F 39% 30.47 in 5.0 mi North 12.7 mph - N/A   Haze
8:55 AM 54.7 °F 27.7 °F 35% 30.47 in 5.0 mi North 12.7 mph - N/A   Haze
9:15 AM 55.6 °F 27.1 °F 34% 30.48 in 7.0 mi North 11.5 mph - N/A   Clear
9:35 AM 56.5 °F 25.7 °F 31% 30.48 in 5.0 mi North 13.8 mph - N/A   Haze
12:15 PM 65.1 °F 18.3 °F 17% 30.45 in 7.0 mi NNE 15.0 mph - N/A   Clear
12:35 PM 65.7 °F 18.0 °F 16% 30.44 in 4.0 mi North 11.5 mph - N/A   Haze
12:55 PM 66.2 °F 17.8 °F 16% 30.42 in 7.0 mi NE 5.8 mph 9.2 mph N/A   Clear
1:15 PM 66.6 °F 18.5 °F 16% 30.41 in 7.0 mi North 5.8 mph 16.1 mph N/A   Clear
1:35 PM 67.8 °F 18.0 °F 15% 30.39 in 7.0 mi NNE 5.8 mph 17.3 mph N/A   Clear
1:55 PM 68.4 °F 18.5 °F 15% 30.38 in 7.0 mi NNE 10.4 mph 16.1 mph N/A   Clear
2:15 PM 68.7 °F 18.1 °F 15% 30.37 in 5.0 mi North 4.6 mph - N/A   Haze
2:35 PM 68.9 °F 17.8 °F 14% 30.35 in 7.0 mi NW 6.9 mph - N/A   Clear
2:55 PM 68.5 °F 17.6 °F 14% 30.35 in 7.0 mi North 3.5 mph - N/A   Clear
3:15 PM 69.4 °F 17.8 °F 14% 30.34 in 5.0 mi NE 5.8 mph - N/A   Haze
3:35 PM 69.6 °F 17.6 °F 14% 30.33 in 7.0 mi East 5.8 mph - N/A   Clear
3:55 PM 69.4 °F 16.9 °F 13% 30.32 in 7.0 mi Calm Calm - N/A   Clear
4:15 PM 69.4 °F 16.5 °F 13% 30.32 in 7.0 mi North 4.6 mph - N/A   Clear
4:35 PM 69.8 °F 16.3 °F 13% 30.31 in 7.0 mi NE 5.8 mph - N/A   Clear
4:55 PM 69.3 °F 16.0 °F 13% 30.31 in 7.0 mi Calm Calm - N/A   Clear
5:15 PM 69.3 °F 16.2 °F 13% 30.31 in 7.0 mi ENE 4.6 mph - N/A   Clear
5:35 PM 69.1 °F 16.3 °F 13% 30.31 in 7.0 mi Calm Calm - N/A   Clear
5:55 PM 68.2 °F 16.0 °F 14% 30.30 in 7.0 mi Calm Calm - N/A   Clear
6:15 PM 65.7 °F 17.8 °F 16% 30.30 in 7.0 mi ESE 4.6 mph - N/A   Clear
6:35 PM 63.7 °F 25.2 °F 23% 30.30 in 7.0 mi ESE 10.4 mph - N/A   Clear
6:55 PM 61.9 °F 28.4 °F 28% 30.31 in 10.0 mi ESE 6.9 mph - N/A   Clear
7:15 PM 60.3 °F 29.3 °F 31% 30.31 in 10.0 mi ESE 9.2 mph - N/A   Clear
7:35 PM 58.5 °F 29.3 °F 33% 30.31 in 10.0 mi ESE 8.1 mph - N/A   Clear
7:55 PM 55.2 °F 30.4 °F 39% 30.32 in 7.0 mi SE 5.8 mph - N/A   Clear
8:15 PM 53.2 °F 29.8 °F 41% 30.33 in 7.0 mi SE 6.9 mph - N/A   Clear
8:35 PM 52.7 °F 31.3 °F 44% 30.33 in 10.0 mi SE 6.9 mph - N/A   Clear
8:55 PM 51.8 °F 32.4 °F 48% 30.33 in 7.0 mi SSE 6.9 mph - N/A   Clear
9:15 PM 51.3 °F 32.9 °F 50% 30.33 in 7.0 mi SE 6.9 mph - N/A   Clear
9:35 PM 50.9 °F 34.2 °F 53% 30.34 in 7.0 mi SSE 5.8 mph - N/A   Clear
9:55 PM 50.4 °F 35.1 °F 56% 30.34 in 7.0 mi SSE 5.8 mph - N/A   Clear
10:15 PM 49.1 °F 34.7 °F 58% 30.33 in 10.0 mi SSE 4.6 mph - N/A   Clear
10:35 PM 49.1 °F 36.1 °F 61% 30.33 in 7.0 mi SE 5.8 mph - N/A   Clear
10:55 PM 47.8 °F 34.9 °F 61% 30.32 in 7.0 mi SE 4.6 mph - N/A   Clear
11:15 PM 47.5 °F 35.8 °F 64% 30.31 in 10.0 mi SE 6.9 mph - N/A   Clear
11:35 PM 47.7 °F 37.4 °F 68% 30.31 in 10.0 mi SE 6.9 mph - N/A   Clear
11:55 PM 48.6 °F 38.1 °F 67% 30.31 in 7.0 mi South 5.8 mph - N/A   Clear